Time,TemperatureF,DewpointF,PressureIn,WindDirection,WindDirectionDegrees,WindSpeedMPH,WindSpeedGustMPH,Humidity,HourlyPrecipIn,Conditions,Clouds,dailyrainin,SoftwareType,DateUTC
2013-05-14 00:01:00,37.9,28.0,-100.00,SSW,196,0.0,3.0,67,0.00,,,0.00,meteohub,2013-05-14 04:01:00,
2013-05-14 00:02:00,37.9,27.7,-100.00,SSE,164,1.0,3.0,66,0.00,,,0.00,meteohub,2013-05-14 04:02:00,
2013-05-14 00:07:00,37.8,27.9,-100.00,SE,146,1.0,3.0,67,0.00,,,0.00,meteohub,2013-05-14 04:07:00,
2013-05-14 00:12:00,37.8,27.9,-100.00,South,172,1.0,2.0,67,0.00,,,0.00,meteohub,2013-05-14 04:12:00,
2013-05-14 00:17:00,37.6,27.7,-100.00,SW,222,0.0,2.0,67,0.00,,,0.00,meteohub,2013-05-14 04:17:00,
2013-05-14 00:22:00,37.2,27.7,-100.00,WSW,243,2.0,2.0,68,0.00,,,0.00,meteohub,2013-05-14 04:22:00,
2013-05-14 00:27:00,37.0,27.5,-100.00,SW,226,0.0,3.0,68,0.00,,,0.00,meteohub,2013-05-14 04:27:00,
2013-05-14 00:32:00,36.9,27.7,-100.00,SSW,207,1.0,4.0,69,0.00,,,0.00,meteohub,2013-05-14 04:32:00,
2013-05-14 00:37:00,36.9,27.7,-100.00,SW,228,1.0,4.0,69,0.00,,,0.00,meteohub,2013-05-14 04:37:00,
2013-05-14 00:42:00,36.9,28.0,-100.00,WSW,237,2.0,5.0,70,0.00,,,0.00,meteohub,2013-05-14 04:42:00,
2013-05-14 00:47:00,36.7,28.2,-100.00,SW,222,3.0,5.0,71,0.00,,,0.00,meteohub,2013-05-14 04:47:00,
2013-05-14 00:52:00,36.9,28.4,-100.00,SW,214,3.0,3.0,71,0.00,,,0.00,meteohub,2013-05-14 04:52:00,
2013-05-14 00:57:00,36.7,28.6,-100.00,SW,215,2.0,4.0,72,0.00,,,0.00,meteohub,2013-05-14 04:57:00,
2013-05-14 01:02:00,36.7,28.8,-100.00,SW,215,2.0,5.0,73,0.00,,,0.00,meteohub,2013-05-14 05:02:00,
2013-05-14 01:07:00,36.5,28.9,-100.00,SW,226,2.0,5.0,74,0.00,,,0.00,meteohub,2013-05-14 05:07:00,
2013-05-14 01:12:00,36.3,29.1,-100.00,SW,222,0.0,5.0,75,0.00,,,0.00,meteohub,2013-05-14 05:12:00,
2013-05-14 01:17:00,36.3,29.5,-100.00,SW,224,1.0,3.0,76,0.00,,,0.00,meteohub,2013-05-14 05:17:00,
2013-05-14 01:22:00,36.3,29.8,-100.00,SW,229,1.0,3.0,77,0.00,,,0.00,meteohub,2013-05-14 05:22:00,
2013-05-14 01:27:00,36.5,30.0,-100.00,WSW,239,0.0,2.0,77,0.00,,,0.00,meteohub,2013-05-14 05:27:00,
2013-05-14 01:32:00,36.3,30.2,-100.00,WSW,248,0.0,2.0,78,0.00,,,0.00,meteohub,2013-05-14 05:32:00,
2013-05-14 01:38:00,36.3,30.2,-100.00,WSW,243,0.0,2.0,78,0.00,,,0.00,meteohub,2013-05-14 05:38:00,
2013-05-14 01:43:00,36.3,30.4,-100.00,SW,236,0.0,2.0,79,0.00,,,0.00,meteohub,2013-05-14 05:43:00,
2013-05-14 01:48:00,36.3,30.4,-100.00,WSW,239,0.0,2.0,79,0.00,,,0.00,meteohub,2013-05-14 05:48:00,
2013-05-14 01:53:00,36.3,30.7,-100.00,WSW,239,1.0,2.0,80,0.00,,,0.00,meteohub,2013-05-14 05:53:00,
2013-05-14 01:58:00,36.1,30.6,-100.00,SW,234,0.0,2.0,80,0.00,,,0.00,meteohub,2013-05-14 05:58:00,
2013-05-14 02:03:00,36.0,30.7,-100.00,WSW,240,0.0,2.0,81,0.00,,,0.00,meteohub,2013-05-14 06:03:00,
2013-05-14 02:08:00,36.0,30.7,-100.00,West,262,0.0,2.0,81,0.00,,,0.00,meteohub,2013-05-14 06:08:00,
2013-05-14 02:13:00,36.1,31.1,-100.00,WSW,241,0.0,2.0,82,0.00,,,0.00,meteohub,2013-05-14 06:13:00,
2013-05-14 02:18:00,36.3,31.1,-100.00,SW,222,0.0,2.0,81,0.00,,,0.00,meteohub,2013-05-14 06:18:00,
2013-05-14 02:23:00,36.3,31.1,-100.00,SW,226,0.0,3.0,81,0.00,,,0.00,meteohub,2013-05-14 06:23:00,
2013-05-14 02:28:00,36.3,31.3,-100.00,SW,232,2.0,3.0,82,0.00,,,0.00,meteohub,2013-05-14 06:28:00,
2013-05-14 02:33:00,36.7,31.6,-100.00,SW,224,1.0,4.0,82,0.00,,,0.00,meteohub,2013-05-14 06:33:00,
2013-05-14 02:38:00,36.7,31.6,-100.00,SW,226,1.0,4.0,82,0.00,,,0.00,meteohub,2013-05-14 06:38:00,
2013-05-14 02:43:00,36.9,31.8,-100.00,SW,226,1.0,4.0,82,0.00,,,0.00,meteohub,2013-05-14 06:43:00,
2013-05-14 02:48:00,37.0,32.0,-100.00,SW,236,2.0,3.0,82,0.00,,,0.00,meteohub,2013-05-14 06:48:00,
2013-05-14 02:53:00,37.2,32.0,-100.00,SW,229,2.0,4.0,81,0.00,,,0.00,meteohub,2013-05-14 06:53:00,
2013-05-14 02:58:00,37.2,32.0,-100.00,SW,220,2.0,5.0,81,0.00,,,0.00,meteohub,2013-05-14 06:58:00,
2013-05-14 03:03:00,37.4,32.2,-100.00,SW,223,1.0,5.0,81,0.00,,,0.00,meteohub,2013-05-14 07:03:00,
2013-05-14 03:08:00,37.2,32.2,-100.00,SW,226,4.0,5.0,82,0.00,,,0.00,meteohub,2013-05-14 07:08:00,
2013-05-14 03:13:00,37.2,32.2,-100.00,SW,221,3.0,4.0,82,0.00,,,0.00,meteohub,2013-05-14 07:13:00,
2013-05-14 03:18:00,37.4,32.2,-100.00,WSW,250,2.0,4.0,81,0.00,,,0.00,meteohub,2013-05-14 07:18:00,
2013-05-14 03:23:00,37.4,32.4,-100.00,SSW,210,1.0,4.0,82,0.00,,,0.00,meteohub,2013-05-14 07:23:00,
2013-05-14 03:28:00,37.8,32.5,-100.00,SSW,209,1.0,4.0,81,0.00,,,0.00,meteohub,2013-05-14 07:28:00,
2013-05-14 03:33:00,37.8,32.5,-100.00,SW,220,1.0,4.0,81,0.00,,,0.00,meteohub,2013-05-14 07:33:00,
2013-05-14 03:38:00,37.8,32.5,-100.00,SW,235,2.0,4.0,81,0.00,,,0.00,meteohub,2013-05-14 07:38:00,
2013-05-14 03:43:00,37.8,32.5,-100.00,WSW,248,1.0,4.0,81,0.00,,,0.00,meteohub,2013-05-14 07:43:00,
2013-05-14 03:48:00,37.8,32.5,-100.00,WSW,243,1.0,4.0,81,0.00,,,0.00,meteohub,2013-05-14 07:48:00,
2013-05-14 03:53:00,37.8,32.5,-100.00,SW,215,0.0,4.0,81,0.00,,,0.00,meteohub,2013-05-14 07:53:00,
2013-05-14 03:58:00,37.8,32.5,-100.00,SW,226,0.0,4.0,81,0.00,,,0.00,meteohub,2013-05-14 07:58:00,
2013-05-14 04:03:00,37.8,32.5,-100.00,SW,214,0.0,4.0,81,0.00,,,0.00,meteohub,2013-05-14 08:03:00,
2013-05-14 04:08:00,37.9,32.7,-100.00,SSE,168,2.0,4.0,81,0.00,,,0.00,meteohub,2013-05-14 08:08:00,
2013-05-14 04:13:00,37.9,32.7,-100.00,SSW,213,0.0,4.0,81,0.00,,,0.00,meteohub,2013-05-14 08:13:00,
2013-05-14 04:18:00,37.9,32.9,-100.00,SSW,212,0.0,4.0,82,0.00,,,0.00,meteohub,2013-05-14 08:18:00,
2013-05-14 04:23:00,37.9,32.9,-100.00,SSW,196,0.0,2.0,82,0.00,,,0.00,meteohub,2013-05-14 08:23:00,
2013-05-14 04:28:00,37.9,32.7,-100.00,SE,140,0.0,2.0,81,0.00,,,0.00,meteohub,2013-05-14 08:28:00,
2013-05-14 04:33:00,38.1,32.7,-100.00,SE,139,0.0,2.0,81,0.00,,,0.00,meteohub,2013-05-14 08:33:00,
2013-05-14 04:38:00,38.1,32.7,-100.00,SE,143,0.0,2.0,81,0.00,,,0.00,meteohub,2013-05-14 08:38:00,
2013-05-14 04:43:00,38.1,32.7,-100.00,SE,143,0.0,2.0,81,0.00,,,0.00,meteohub,2013-05-14 08:43:00,
2013-05-14 04:48:00,38.1,33.1,-100.00,SE,127,0.0,2.0,82,0.00,,,0.00,meteohub,2013-05-14 08:48:00,
2013-05-14 04:53:00,38.1,33.1,-100.00,SE,129,0.0,1.0,82,0.00,,,0.00,meteohub,2013-05-14 08:53:00,
2013-05-14 04:58:00,38.1,33.1,-100.00,SE,131,0.0,1.0,82,0.00,,,0.00,meteohub,2013-05-14 08:58:00,
2013-05-14 05:03:00,37.9,33.3,-100.00,SE,131,0.0,1.0,83,0.00,,,0.00,meteohub,2013-05-14 09:03:00,
2013-05-14 05:08:00,37.8,33.4,-100.00,SE,131,0.0,1.0,84,0.00,,,0.00,meteohub,2013-05-14 09:08:00,
2013-05-14 05:13:00,37.6,33.4,-100.00,SE,131,0.0,0.0,85,0.00,,,0.00,meteohub,2013-05-14 09:13:00,
2013-05-14 05:19:00,37.6,33.8,-100.00,SE,131,0.0,0.0,86,0.00,,,0.00,meteohub,2013-05-14 09:19:00,
2013-05-14 05:24:00,37.2,33.4,-100.00,SE,131,0.0,0.0,86,0.00,,,0.00,meteohub,2013-05-14 09:24:00,
2013-05-14 05:29:00,37.0,33.3,-100.00,SE,131,0.0,0.0,86,0.00,,,0.00,meteohub,2013-05-14 09:29:00,
2013-05-14 05:34:00,36.9,33.4,-100.00,SE,131,0.0,0.0,87,0.00,,,0.00,meteohub,2013-05-14 09:34:00,
2013-05-14 05:39:00,37.0,33.8,-100.00,SE,131,0.0,0.0,88,0.00,,,0.00,meteohub,2013-05-14 09:39:00,
2013-05-14 05:44:00,36.9,34.0,-100.00,SE,131,0.0,0.0,89,0.00,,,0.00,meteohub,2013-05-14 09:44:00,
2013-05-14 05:49:00,37.2,34.3,-100.00,SE,131,0.0,0.0,89,0.00,,,0.00,meteohub,2013-05-14 09:49:00,
2013-05-14 05:54:00,37.6,34.7,-100.00,SE,131,0.0,0.0,89,0.00,,,0.00,meteohub,2013-05-14 09:54:00,
2013-05-14 05:59:00,37.9,34.7,-100.00,SE,131,0.0,0.0,88,0.00,,,0.00,meteohub,2013-05-14 09:59:00,
2013-05-14 06:04:00,37.8,34.5,-100.00,SE,131,0.0,0.0,88,0.00,,,0.00,meteohub,2013-05-14 10:04:00,
2013-05-14 06:09:00,37.6,34.3,-100.00,SE,131,0.0,0.0,88,0.00,,,0.00,meteohub,2013-05-14 10:09:00,
2013-05-14 06:14:00,37.6,34.3,-100.00,SE,131,0.0,0.0,88,0.00,,,0.00,meteohub,2013-05-14 10:14:00,
2013-05-14 06:19:00,37.4,34.2,-100.00,SE,131,0.0,0.0,88,0.00,,,0.00,meteohub,2013-05-14 10:19:00,
2013-05-14 06:24:00,37.6,34.7,-100.00,SE,131,0.0,0.0,89,0.00,,,0.00,meteohub,2013-05-14 10:24:00,
2013-05-14 06:29:00,37.8,34.9,-100.00,SE,131,0.0,0.0,89,0.00,,,0.00,meteohub,2013-05-14 10:29:00,
2013-05-14 06:34:00,37.8,34.9,-100.00,SE,131,0.0,0.0,89,0.00,,,0.00,meteohub,2013-05-14 10:34:00,
2013-05-14 06:39:00,37.9,35.1,-100.00,SE,131,0.0,0.0,89,0.00,,,0.00,meteohub,2013-05-14 10:39:00,
2013-05-14 06:44:00,37.9,35.1,-100.00,SE,131,0.0,0.0,89,0.00,,,0.00,meteohub,2013-05-14 10:44:00,
2013-05-14 06:49:00,38.3,35.6,-100.00,SE,131,0.0,0.0,90,0.00,,,0.00,meteohub,2013-05-14 10:49:00,
2013-05-14 06:54:00,38.7,36.0,-100.00,SE,131,0.0,0.0,90,0.00,,,0.00,meteohub,2013-05-14 10:54:00,
2013-05-14 06:59:00,39.0,36.3,-100.00,SE,131,0.0,0.0,90,0.00,,,0.00,meteohub,2013-05-14 10:59:00,
2013-05-14 07:04:00,39.4,36.7,-100.00,SE,131,0.0,0.0,90,0.00,,,0.00,meteohub,2013-05-14 11:04:00,
2013-05-14 07:09:00,39.7,36.7,-100.00,SE,131,0.0,0.0,89,0.00,,,0.00,meteohub,2013-05-14 11:09:00,
2013-05-14 07:14:00,40.3,37.2,-100.00,SE,131,0.0,0.0,89,0.00,,,0.00,meteohub,2013-05-14 11:14:00,
2013-05-14 07:19:00,40.8,37.8,-100.00,SE,131,0.0,0.0,89,0.00,,,0.00,meteohub,2013-05-14 11:19:00,
2013-05-14 07:24:00,41.5,38.3,-100.00,SE,131,0.0,0.0,88,0.00,,,0.00,meteohub,2013-05-14 11:24:00,
2013-05-14 07:29:00,42.1,38.1,-100.00,SE,131,0.0,0.0,86,0.00,,,0.00,meteohub,2013-05-14 11:29:00,
2013-05-14 07:34:00,43.2,38.7,-100.00,SE,131,0.0,0.0,84,0.00,,,0.00,meteohub,2013-05-14 11:34:00,
2013-05-14 07:39:00,44.1,38.7,-100.00,SSE,150,0.0,0.0,81,0.00,,,0.00,meteohub,2013-05-14 11:39:00,
2013-05-14 07:44:00,45.0,38.8,-100.00,SE,132,0.0,0.0,79,0.00,,,0.00,meteohub,2013-05-14 11:44:00,
2013-05-14 07:50:00,45.3,38.5,-100.00,SSW,213,0.0,0.0,77,0.00,,,0.00,meteohub,2013-05-14 11:50:00,
2013-05-14 07:55:00,45.7,38.8,-100.00,SSW,205,0.0,3.0,77,0.00,,,0.00,meteohub,2013-05-14 11:55:00,
2013-05-14 08:00:00,46.4,38.8,-100.00,South,181,0.0,3.0,75,0.00,,,0.00,meteohub,2013-05-14 12:00:00,
2013-05-14 08:05:00,46.9,38.7,-100.00,WSW,245,2.0,3.0,73,0.00,,,0.00,meteohub,2013-05-14 12:05:00,
2013-05-14 08:10:00,47.3,38.3,-100.00,SW,218,3.0,5.0,71,0.00,,,0.00,meteohub,2013-05-14 12:10:00,
2013-05-14 08:15:00,47.7,37.9,-100.00,SW,216,3.0,5.0,69,0.00,,,0.00,meteohub,2013-05-14 12:15:00,
2013-05-14 08:20:00,48.0,37.9,-100.00,SE,145,4.0,7.0,68,0.00,,,0.00,meteohub,2013-05-14 12:20:00,
2013-05-14 08:25:00,48.6,37.4,-100.00,SSW,194,4.0,7.0,65,0.00,,,0.00,meteohub,2013-05-14 12:25:00,
2013-05-14 08:30:00,48.9,36.9,-100.00,SSW,208,4.0,7.0,63,0.00,,,0.00,meteohub,2013-05-14 12:30:00,
2013-05-14 08:35:00,49.5,37.0,-100.00,SW,233,5.0,10.0,62,0.00,,,0.00,meteohub,2013-05-14 12:35:00,
2013-05-14 08:40:00,49.6,36.3,-100.00,SW,220,7.0,10.0,60,0.00,,,0.00,meteohub,2013-05-14 12:40:00,
2013-05-14 08:45:00,49.8,35.2,-100.00,SW,216,4.0,9.0,57,0.00,,,0.00,meteohub,2013-05-14 12:45:00,
2013-05-14 08:50:00,49.5,35.2,-100.00,South,186,3.0,9.0,58,0.00,,,0.00,meteohub,2013-05-14 12:50:00,
2013-05-14 08:55:00,50.2,36.0,-100.00,SW,221,3.0,9.0,58,0.00,,,0.00,meteohub,2013-05-14 12:55:00,
2013-05-14 09:00:00,50.7,35.6,-100.00,South,178,8.0,9.0,56,0.00,,,0.00,meteohub,2013-05-14 13:00:00,
2013-05-14 09:05:00,50.4,34.9,-100.00,SW,226,8.0,11.0,55,0.00,,,0.00,meteohub,2013-05-14 13:05:00,
2013-05-14 09:10:00,49.8,34.3,-100.00,SSW,199,4.0,11.0,55,0.00,,,0.00,meteohub,2013-05-14 13:10:00,
2013-05-14 09:15:00,50.2,35.1,-100.00,South,188,5.0,11.0,56,0.00,,,0.00,meteohub,2013-05-14 13:15:00,
2013-05-14 09:20:00,50.5,34.0,-100.00,WSW,255,4.0,11.0,53,0.00,,,0.00,meteohub,2013-05-14 13:20:00,
2013-05-14 09:25:00,50.5,34.0,-100.00,SW,216,11.0,11.0,53,0.00,,,0.00,meteohub,2013-05-14 13:25:00,
2013-05-14 09:30:00,50.4,34.9,-100.00,WSW,251,6.0,11.0,55,0.00,,,0.00,meteohub,2013-05-14 13:30:00,
2013-05-14 09:35:00,50.7,33.8,-100.00,SW,216,7.0,11.0,52,0.00,,,0.00,meteohub,2013-05-14 13:35:00,
2013-05-14 09:40:00,51.3,33.3,-100.00,SSW,198,6.0,11.0,50,0.00,,,0.00,meteohub,2013-05-14 13:40:00,
2013-05-14 09:45:00,51.3,32.7,-100.00,South,181,6.0,13.0,49,0.00,,,0.00,meteohub,2013-05-14 13:45:00,
2013-05-14 09:50:00,51.6,33.6,-100.00,WSW,239,8.0,13.0,50,0.00,,,0.00,meteohub,2013-05-14 13:50:00,
2013-05-14 09:55:00,52.2,33.1,-100.00,SSW,193,4.0,10.0,48,0.00,,,0.00,meteohub,2013-05-14 13:55:00,
2013-05-14 10:00:00,52.5,33.4,-100.00,SSW,195,8.0,10.0,48,0.00,,,0.00,meteohub,2013-05-14 14:00:00,
2013-05-14 10:05:00,53.1,32.9,-100.00,SW,219,6.0,10.0,46,0.00,,,0.00,meteohub,2013-05-14 14:05:00,
2013-05-14 10:10:00,53.4,31.5,-100.00,SW,224,4.0,14.0,43,0.00,,,0.00,meteohub,2013-05-14 14:10:00,
2013-05-14 10:16:00,54.0,32.5,-100.00,SSW,194,7.0,14.0,44,0.00,,,0.00,meteohub,2013-05-14 14:16:00,
2013-05-14 10:21:00,53.4,30.9,-100.00,South,184,4.0,12.0,42,0.00,,,0.00,meteohub,2013-05-14 14:21:00,
2013-05-14 10:26:00,53.6,31.1,-100.00,SSE,150,4.0,10.0,42,0.00,,,0.00,meteohub,2013-05-14 14:26:00,
2013-05-14 10:31:00,54.3,31.6,-100.00,SW,224,5.0,12.0,42,0.00,,,0.00,meteohub,2013-05-14 14:31:00,
2013-05-14 10:36:00,55.2,33.1,-100.00,SSE,160,4.0,12.0,43,0.00,,,0.00,meteohub,2013-05-14 14:36:00,
2013-05-14 10:41:00,55.0,30.6,-100.00,South,174,3.0,13.0,39,0.00,,,0.00,meteohub,2013-05-14 14:41:00,
2013-05-14 10:46:00,55.0,29.8,-100.00,WSW,252,8.0,13.0,38,0.00,,,0.00,meteohub,2013-05-14 14:46:00,
2013-05-14 10:51:00,54.9,29.1,-100.00,SW,232,8.0,13.0,37,0.00,,,0.00,meteohub,2013-05-14 14:51:00,
2013-05-14 10:56:00,54.9,30.9,-100.00,SW,229,5.0,15.0,40,0.00,,,0.00,meteohub,2013-05-14 14:56:00,
2013-05-14 11:01:00,55.6,30.4,-100.00,South,188,3.0,15.0,38,0.00,,,0.00,meteohub,2013-05-14 15:01:00,
2013-05-14 11:06:00,55.6,30.4,-100.00,SW,217,5.0,15.0,38,0.00,,,0.00,meteohub,2013-05-14 15:06:00,
2013-05-14 11:11:00,55.9,32.0,-100.00,SSW,211,7.0,12.0,40,0.00,,,0.00,meteohub,2013-05-14 15:11:00,
2013-05-14 11:16:00,56.3,31.6,-100.00,SSW,210,5.0,12.0,39,0.00,,,0.00,meteohub,2013-05-14 15:16:00,
2013-05-14 11:21:00,56.3,32.9,-100.00,SW,216,5.0,12.0,41,0.00,,,0.00,meteohub,2013-05-14 15:21:00,
2013-05-14 11:26:00,56.7,32.5,-100.00,SSW,201,4.0,13.0,40,0.00,,,0.00,meteohub,2013-05-14 15:26:00,
2013-05-14 11:31:00,56.8,31.5,-100.00,SW,236,7.0,13.0,38,0.00,,,0.00,meteohub,2013-05-14 15:31:00,
2013-05-14 11:36:00,56.5,30.6,-100.00,WSW,241,8.0,13.0,37,0.00,,,0.00,meteohub,2013-05-14 15:36:00,
2013-05-14 11:41:00,56.5,29.8,-100.00,WSW,252,3.0,12.0,36,0.00,,,0.00,meteohub,2013-05-14 15:41:00,
2013-05-14 11:46:00,56.8,30.2,-100.00,SSE,151,2.0,12.0,36,0.00,,,0.00,meteohub,2013-05-14 15:46:00,
2013-05-14 11:51:00,57.4,30.0,-100.00,SSW,204,6.0,12.0,35,0.00,,,0.00,meteohub,2013-05-14 15:51:00,
2013-05-14 11:56:00,56.8,28.8,-100.00,South,186,3.0,10.0,34,0.00,,,0.00,meteohub,2013-05-14 15:56:00,
2013-05-14 12:01:00,56.8,30.2,-100.00,South,188,5.0,9.0,36,0.00,,,0.00,meteohub,2013-05-14 16:01:00,
2013-05-14 12:06:00,56.7,31.3,-100.00,South,188,6.0,9.0,38,0.00,,,0.00,meteohub,2013-05-14 16:06:00,
2013-05-14 12:11:00,57.0,30.9,-100.00,WSW,240,6.0,12.0,37,0.00,,,0.00,meteohub,2013-05-14 16:11:00,
2013-05-14 12:16:00,56.7,28.6,-100.00,SSW,212,2.0,12.0,34,0.00,,,0.00,meteohub,2013-05-14 16:16:00,
2013-05-14 12:21:00,56.7,30.0,-100.00,SW,233,7.0,12.0,36,0.00,,,0.00,meteohub,2013-05-14 16:21:00,
2013-05-14 12:26:00,56.8,30.2,-100.00,SSW,195,4.0,12.0,36,0.00,,,0.00,meteohub,2013-05-14 16:26:00,
2013-05-14 12:31:00,56.7,27.9,-100.00,SSW,208,7.0,10.0,33,0.00,,,0.00,meteohub,2013-05-14 16:31:00,
2013-05-14 12:36:00,56.5,28.4,-100.00,SW,223,5.0,10.0,34,0.00,,,0.00,meteohub,2013-05-14 16:36:00,
2013-05-14 12:41:00,55.9,28.0,-100.00,SSE,167,4.0,11.0,34,0.00,,,0.00,meteohub,2013-05-14 16:41:00,
2013-05-14 12:46:00,55.9,28.8,-100.00,SSE,154,8.0,11.0,35,0.00,,,0.00,meteohub,2013-05-14 16:46:00,
2013-05-14 12:51:00,55.8,27.9,-100.00,SSW,199,2.0,11.0,34,0.00,,,0.00,meteohub,2013-05-14 16:51:00,
2013-05-14 12:56:00,55.8,27.9,-100.00,WSW,244,3.0,9.0,34,0.00,,,0.00,meteohub,2013-05-14 16:56:00,
2013-05-14 13:01:00,55.8,28.6,-100.00,SSE,162,4.0,11.0,35,0.00,,,0.00,meteohub,2013-05-14 17:01:00,
2013-05-14 13:07:00,55.6,28.4,-100.00,SE,146,3.0,11.0,35,0.00,,,0.00,meteohub,2013-05-14 17:07:00,
2013-05-14 13:12:00,55.8,27.9,-100.00,SSE,158,2.0,11.0,34,0.00,,,0.00,meteohub,2013-05-14 17:12:00,
2013-05-14 13:17:00,55.4,27.5,-100.00,South,187,7.0,11.0,34,0.00,,,0.00,meteohub,2013-05-14 17:17:00,
2013-05-14 13:22:00,55.6,28.4,-100.00,SSW,208,4.0,11.0,35,0.00,,,0.00,meteohub,2013-05-14 17:22:00,
2013-05-14 13:27:00,55.6,27.0,-100.00,SSE,155,3.0,9.0,33,0.00,,,0.00,meteohub,2013-05-14 17:27:00,
2013-05-14 13:32:00,55.9,28.8,-100.00,SE,144,5.0,8.0,35,0.00,,,0.00,meteohub,2013-05-14 17:32:00,
2013-05-14 13:37:00,56.7,28.6,-100.00,SSE,148,7.0,8.0,34,0.00,,,0.00,meteohub,2013-05-14 17:37:00,
2013-05-14 13:42:00,57.0,28.9,-100.00,SSE,158,3.0,10.0,34,0.00,,,0.00,meteohub,2013-05-14 17:42:00,
2013-05-14 13:47:00,58.1,31.3,-100.00,SSW,200,6.0,10.0,36,0.00,,,0.00,meteohub,2013-05-14 17:47:00,
2013-05-14 13:52:00,58.3,30.7,-100.00,SSE,150,6.0,10.0,35,0.00,,,0.00,meteohub,2013-05-14 17:52:00,
2013-05-14 13:57:00,58.5,28.8,-100.00,SSE,167,2.0,10.0,32,0.00,,,0.00,meteohub,2013-05-14 17:57:00,
2013-05-14 14:02:00,58.6,29.7,-100.00,SE,129,8.0,10.0,33,0.00,,,0.00,meteohub,2013-05-14 18:02:00,
2013-05-14 14:07:00,59.2,28.6,-100.00,SE,128,11.0,13.0,31,0.00,,,0.00,meteohub,2013-05-14 18:07:00,
2013-05-14 14:12:00,59.4,28.8,-100.00,ESE,115,3.0,13.0,31,0.00,,,0.00,meteohub,2013-05-14 18:12:00,
2013-05-14 14:17:00,59.4,29.5,-100.00,South,169,9.0,13.0,32,0.00,,,0.00,meteohub,2013-05-14 18:17:00,
2013-05-14 14:22:00,59.2,29.3,-100.00,SSE,160,3.0,11.0,32,0.00,,,0.00,meteohub,2013-05-14 18:22:00,
2013-05-14 14:27:00,59.2,28.6,-100.00,South,188,2.0,11.0,31,0.00,,,0.00,meteohub,2013-05-14 18:27:00,
2013-05-14 14:32:00,59.4,29.5,-100.00,SSE,155,3.0,10.0,32,0.00,,,0.00,meteohub,2013-05-14 18:32:00,
2013-05-14 14:37:00,59.4,30.2,-100.00,SSW,212,6.0,12.0,33,0.00,,,0.00,meteohub,2013-05-14 18:37:00,
2013-05-14 14:42:00,59.0,26.8,-100.00,South,191,7.0,12.0,29,0.00,,,0.00,meteohub,2013-05-14 18:42:00,
2013-05-14 14:47:00,58.5,29.5,-100.00,SSE,155,9.0,13.0,33,0.00,,,0.00,meteohub,2013-05-14 18:47:00,
2013-05-14 14:52:00,58.3,27.9,-100.00,South,180,4.0,13.0,31,0.00,,,0.00,meteohub,2013-05-14 18:52:00,
2013-05-14 14:57:00,58.3,28.6,-100.00,South,191,5.0,13.0,32,0.00,,,0.00,meteohub,2013-05-14 18:57:00,
2013-05-14 15:02:00,58.1,29.1,-100.00,South,186,5.0,12.0,33,0.00,,,0.00,meteohub,2013-05-14 19:02:00,
2013-05-14 15:07:00,57.9,28.2,-100.00,SW,217,5.0,10.0,32,0.00,,,0.00,meteohub,2013-05-14 19:07:00,
2013-05-14 15:12:00,57.6,29.5,-100.00,SSW,212,5.0,10.0,34,0.00,,,0.00,meteohub,2013-05-14 19:12:00,
2013-05-14 15:17:00,57.6,28.6,-100.00,SSW,210,6.0,10.0,33,0.00,,,0.00,meteohub,2013-05-14 19:17:00,
2013-05-14 15:22:00,57.4,28.6,-100.00,SSW,212,2.0,10.0,33,0.00,,,0.00,meteohub,2013-05-14 19:22:00,
2013-05-14 15:27:00,57.4,28.6,-100.00,SSE,148,3.0,8.0,33,0.00,,,0.00,meteohub,2013-05-14 19:27:00,
2013-05-14 15:32:00,57.0,30.4,-100.00,SW,234,5.0,8.0,36,0.00,,,0.00,meteohub,2013-05-14 19:32:00,
2013-05-14 15:37:00,56.8,29.5,-100.00,South,178,6.0,11.0,35,0.00,,,0.00,meteohub,2013-05-14 19:37:00,
2013-05-14 15:42:00,56.8,30.2,-100.00,SSE,149,4.0,11.0,36,0.00,,,0.00,meteohub,2013-05-14 19:42:00,
2013-05-14 15:47:00,57.2,29.8,-100.00,SW,223,4.0,11.0,35,0.00,,,0.00,meteohub,2013-05-14 19:47:00,
2013-05-14 15:52:00,57.6,30.7,-100.00,SSE,149,3.0,9.0,36,0.00,,,0.00,meteohub,2013-05-14 19:52:00,
2013-05-14 15:57:00,57.6,29.5,-100.00,SSE,156,4.0,9.0,34,0.00,,,0.00,meteohub,2013-05-14 19:57:00,
2013-05-14 16:02:00,57.7,30.2,-100.00,SSE,153,7.0,9.0,35,0.00,,,0.00,meteohub,2013-05-14 20:02:00,
2013-05-14 16:07:00,57.9,30.4,-100.00,SSE,166,2.0,9.0,35,0.00,,,0.00,meteohub,2013-05-14 20:07:00,
2013-05-14 16:12:00,57.6,29.5,-100.00,ESE,117,8.0,9.0,34,0.00,,,0.00,meteohub,2013-05-14 20:12:00,
2013-05-14 16:17:00,57.4,30.0,-100.00,SSE,148,3.0,11.0,35,0.00,,,0.00,meteohub,2013-05-14 20:17:00,
2013-05-14 16:22:00,57.6,30.7,-100.00,SE,130,6.0,11.0,36,0.00,,,0.00,meteohub,2013-05-14 20:22:00,
2013-05-14 16:27:00,57.9,31.1,-100.00,SSE,159,4.0,11.0,36,0.00,,,0.00,meteohub,2013-05-14 20:27:00,
2013-05-14 16:33:00,58.3,32.2,-100.00,South,182,3.0,11.0,37,0.00,,,0.00,meteohub,2013-05-14 20:33:00,
2013-05-14 16:38:00,57.9,31.1,-100.00,SSW,192,4.0,9.0,36,0.00,,,0.00,meteohub,2013-05-14 20:38:00,
2013-05-14 16:43:00,57.7,30.9,-100.00,SSE,167,4.0,8.0,36,0.00,,,0.00,meteohub,2013-05-14 20:43:00,
2013-05-14 16:48:00,57.4,32.0,-100.00,SSE,153,4.0,9.0,38,0.00,,,0.00,meteohub,2013-05-14 20:48:00,
2013-05-14 16:53:00,57.4,31.3,-100.00,SSW,194,3.0,9.0,37,0.00,,,0.00,meteohub,2013-05-14 20:53:00,
2013-05-14 16:58:00,57.4,32.5,-100.00,SSE,166,2.0,9.0,39,0.00,,,0.00,meteohub,2013-05-14 20:58:00,
2013-05-14 17:03:00,57.4,32.0,-100.00,ESE,120,5.0,11.0,38,0.00,,,0.00,meteohub,2013-05-14 21:03:00,
2013-05-14 17:08:00,57.2,31.8,-100.00,SSW,196,3.0,11.0,38,0.00,,,0.00,meteohub,2013-05-14 21:08:00,
2013-05-14 17:13:00,57.2,33.1,-100.00,South,177,4.0,7.0,40,0.00,,,0.00,meteohub,2013-05-14 21:13:00,
2013-05-14 17:18:00,57.2,32.5,-100.00,SE,134,3.0,7.0,39,0.00,,,0.00,meteohub,2013-05-14 21:18:00,
2013-05-14 17:23:00,57.2,33.1,-100.00,SE,143,2.0,7.0,40,0.00,,,0.00,meteohub,2013-05-14 21:23:00,
2013-05-14 17:28:00,57.4,32.5,-100.00,SSE,160,7.0,7.0,39,0.00,,,0.00,meteohub,2013-05-14 21:28:00,
2013-05-14 17:33:00,57.4,32.5,-100.00,SE,129,2.0,8.0,39,0.00,,,0.00,meteohub,2013-05-14 21:33:00,
2013-05-14 17:38:00,57.4,33.3,-100.00,SSW,201,2.0,8.0,40,0.00,,,0.00,meteohub,2013-05-14 21:38:00,
2013-05-14 17:43:00,57.0,32.9,-100.00,NE,34,4.0,8.0,40,0.00,,,0.00,meteohub,2013-05-14 21:43:00,
2013-05-14 17:48:00,56.8,32.7,-100.00,SE,133,4.0,8.0,40,0.00,,,0.00,meteohub,2013-05-14 21:48:00,
2013-05-14 17:53:00,56.8,32.7,-100.00,East,99,2.0,8.0,40,0.00,,,0.00,meteohub,2013-05-14 21:53:00,
2013-05-14 17:58:00,56.5,33.1,-100.00,SSE,148,1.0,8.0,41,0.00,,,0.00,meteohub,2013-05-14 21:58:00,
2013-05-14 18:03:00,56.5,33.6,-100.00,SE,124,1.0,8.0,42,0.00,,,0.00,meteohub,2013-05-14 22:03:00,
2013-05-14 18:08:00,56.5,33.1,-100.00,SW,224,3.0,6.0,41,0.00,,,0.00,meteohub,2013-05-14 22:08:00,
2013-05-14 18:13:00,56.5,33.6,-100.00,SSE,158,1.0,4.0,42,0.00,,,0.00,meteohub,2013-05-14 22:13:00,
2013-05-14 18:18:00,56.5,33.6,-100.00,SSE,152,1.0,4.0,42,0.00,,,0.00,meteohub,2013-05-14 22:18:00,
2013-05-14 18:23:00,56.5,34.3,-100.00,South,172,0.0,4.0,43,0.00,,,0.00,meteohub,2013-05-14 22:23:00,
2013-05-14 18:28:00,56.3,34.7,-100.00,ESE,113,1.0,4.0,44,0.00,,,0.00,meteohub,2013-05-14 22:28:00,
2013-05-14 18:33:00,56.1,33.3,-100.00,SSE,155,1.0,3.0,42,0.00,,,0.00,meteohub,2013-05-14 22:33:00,
2013-05-14 18:38:00,56.1,33.3,-100.00,SSW,204,2.0,4.0,42,0.00,,,0.00,meteohub,2013-05-14 22:38:00,
2013-05-14 18:43:00,55.9,33.8,-100.00,SSE,159,2.0,4.0,43,0.00,,,0.00,meteohub,2013-05-14 22:43:00,
2013-05-14 18:48:00,55.9,33.8,-100.00,SSE,157,0.0,4.0,43,0.00,,,0.00,meteohub,2013-05-14 22:48:00,
2013-05-14 18:53:00,55.8,33.6,-100.00,SSW,210,1.0,4.0,43,0.00,,,0.00,meteohub,2013-05-14 22:53:00,
2013-05-14 18:58:00,55.8,33.6,-100.00,SE,139,0.0,5.0,43,0.00,,,0.00,meteohub,2013-05-14 22:58:00,
2013-05-14 19:03:00,55.8,33.6,-100.00,SE,134,1.0,5.0,43,0.00,,,0.00,meteohub,2013-05-14 23:03:00,
2013-05-14 19:08:00,55.8,34.2,-100.00,South,169,1.0,3.0,44,0.00,,,0.00,meteohub,2013-05-14 23:08:00,
2013-05-14 19:14:00,55.6,34.5,-100.00,SSE,155,0.0,3.0,45,0.00,,,0.00,meteohub,2013-05-14 23:14:00,
2013-05-14 19:19:00,55.4,33.8,-100.00,SSE,167,0.0,3.0,44,0.00,,,0.00,meteohub,2013-05-14 23:19:00,
2013-05-14 19:24:00,55.2,34.2,-100.00,SE,146,0.0,3.0,45,0.00,,,0.00,meteohub,2013-05-14 23:24:00,
2013-05-14 19:29:00,55.2,34.2,-100.00,SSE,162,0.0,0.0,45,0.00,,,0.00,meteohub,2013-05-14 23:29:00,
2013-05-14 19:34:00,55.0,35.2,-100.00,SE,125,0.0,2.0,47,0.00,,,0.00,meteohub,2013-05-14 23:34:00,
2013-05-14 19:39:00,54.9,35.6,-100.00,SE,141,0.0,1.0,48,0.00,,,0.00,meteohub,2013-05-14 23:39:00,
2013-05-14 19:44:00,54.7,35.4,-100.00,SE,139,0.0,0.0,48,0.00,,,0.00,meteohub,2013-05-14 23:44:00,
2013-05-14 19:49:00,54.5,35.2,-100.00,ESE,111,0.0,0.0,48,0.00,,,0.00,meteohub,2013-05-14 23:49:00,
2013-05-14 19:54:00,54.3,35.6,-100.00,ESE,113,0.0,1.0,49,0.00,,,0.00,meteohub,2013-05-14 23:54:00,
2013-05-14 19:59:00,54.1,36.0,-100.00,SE,141,0.0,1.0,50,0.00,,,0.00,meteohub,2013-05-14 23:59:00,
2013-05-14 20:04:00,54.0,35.8,-100.00,SE,141,0.0,1.0,50,0.00,,,0.00,meteohub,2013-05-15 00:04:00,
2013-05-14 20:09:00,53.8,36.1,-100.00,SE,141,0.0,1.0,51,0.00,,,0.00,meteohub,2013-05-15 00:09:00,
2013-05-14 20:14:00,53.6,36.3,-100.00,SE,141,0.0,0.0,52,0.00,,,0.00,meteohub,2013-05-15 00:14:00,
2013-05-14 20:19:00,53.4,36.3,-100.00,SE,141,0.0,0.0,52,0.00,,,0.00,meteohub,2013-05-15 00:19:00,
2013-05-14 20:24:00,53.4,35.8,-100.00,SE,141,0.0,0.0,51,0.00,,,0.00,meteohub,2013-05-15 00:24:00,
2013-05-14 20:29:00,53.2,36.5,-100.00,SE,141,0.0,0.0,53,0.00,,,0.00,meteohub,2013-05-15 00:29:00,
2013-05-14 20:34:00,53.2,37.0,-100.00,SE,141,0.0,0.0,54,0.00,,,0.00,meteohub,2013-05-15 00:34:00,
2013-05-14 20:39:00,53.2,36.1,-100.00,SE,139,0.0,0.0,52,0.00,,,0.00,meteohub,2013-05-15 00:39:00,
2013-05-14 20:44:00,53.2,36.5,-100.00,ESE,117,0.0,1.0,53,0.00,,,0.00,meteohub,2013-05-15 00:44:00,
2013-05-14 20:49:00,53.2,37.0,-100.00,ESE,116,0.0,1.0,54,0.00,,,0.00,meteohub,2013-05-15 00:49:00,
2013-05-14 20:54:00,53.1,36.9,-100.00,ESE,115,0.0,1.0,54,0.00,,,0.00,meteohub,2013-05-15 00:54:00,
2013-05-14 20:59:00,53.1,37.4,-100.00,SE,129,0.0,2.0,55,0.00,,,0.00,meteohub,2013-05-15 00:59:00,
2013-05-14 21:04:00,53.1,37.8,-100.00,SE,124,0.0,2.0,56,0.00,,,0.00,meteohub,2013-05-15 01:04:00,
2013-05-14 21:09:00,53.1,37.4,-100.00,North,351,0.0,2.0,55,0.00,,,0.00,meteohub,2013-05-15 01:09:00,
2013-05-14 21:14:00,53.2,37.9,-100.00,East,90,0.0,2.0,56,0.00,,,0.00,meteohub,2013-05-15 01:14:00,
2013-05-14 21:19:00,53.2,37.9,-100.00,ENE,62,0.0,2.0,56,0.00,,,0.00,meteohub,2013-05-15 01:19:00,
2013-05-14 21:24:00,53.1,38.3,-100.00,East,98,2.0,2.0,57,0.00,,,0.00,meteohub,2013-05-15 01:24:00,
2013-05-14 21:29:00,53.2,38.5,-100.00,ESE,106,0.0,2.0,57,0.00,,,0.00,meteohub,2013-05-15 01:29:00,
2013-05-14 21:35:00,53.4,38.1,-100.00,SE,135,2.0,3.0,56,0.00,,,0.00,meteohub,2013-05-15 01:35:00,
2013-05-14 21:40:00,53.8,38.8,-100.00,SSE,148,1.0,5.0,57,0.00,,,0.00,meteohub,2013-05-15 01:40:00,
2013-05-14 21:45:00,53.8,38.5,-100.00,SE,143,0.0,6.0,56,0.00,,,0.00,meteohub,2013-05-15 01:45:00,
2013-05-14 21:50:00,54.0,39.6,-100.00,ENE,71,2.0,6.0,58,0.00,,,0.00,meteohub,2013-05-15 01:50:00,
2013-05-14 21:55:00,54.0,39.6,-100.00,ESE,118,2.0,9.0,58,0.00,,,0.00,meteohub,2013-05-15 01:55:00,
2013-05-14 22:00:00,54.0,39.6,-100.00,SSE,163,4.0,9.0,58,0.00,,,0.00,meteohub,2013-05-15 02:00:00,
2013-05-14 22:05:00,54.0,39.6,-100.00,ESE,120,5.0,9.0,58,0.00,,,0.00,meteohub,2013-05-15 02:05:00,
2013-05-14 22:10:00,54.0,39.6,-100.00,SE,127,3.0,9.0,58,0.00,,,0.00,meteohub,2013-05-15 02:10:00,
2013-05-14 22:15:00,54.0,39.9,-100.00,ESE,115,1.0,9.0,59,0.00,,,0.00,meteohub,2013-05-15 02:15:00,
2013-05-14 22:20:00,54.0,39.6,-100.00,SE,143,1.0,9.0,58,0.00,,,0.00,meteohub,2013-05-15 02:20:00,
2013-05-14 22:25:00,54.0,39.9,-100.00,SSE,162,3.0,9.0,59,0.00,,,0.00,meteohub,2013-05-15 02:25:00,
2013-05-14 22:30:00,54.0,40.5,-100.00,ESE,120,2.0,7.0,60,0.00,,,0.00,meteohub,2013-05-15 02:30:00,
2013-05-14 22:35:00,53.8,40.3,-100.00,East,95,0.0,4.0,60,0.00,,,0.00,meteohub,2013-05-15 02:35:00,
2013-05-14 22:40:00,53.8,40.3,-100.00,SSE,159,4.0,7.0,60,0.00,,,0.00,meteohub,2013-05-15 02:40:00,
2013-05-14 22:45:00,53.8,40.6,-100.00,East,97,4.0,7.0,61,0.00,,,0.00,meteohub,2013-05-15 02:45:00,
2013-05-14 22:50:00,53.8,40.6,-100.00,SSE,156,3.0,7.0,61,0.00,,,0.00,meteohub,2013-05-15 02:50:00,
2013-05-14 22:55:00,53.8,41.0,-100.00,South,180,1.0,6.0,62,0.00,,,0.00,meteohub,2013-05-15 02:55:00,
2013-05-14 23:00:00,53.8,40.6,-100.00,SW,217,3.0,6.0,61,0.00,,,0.00,meteohub,2013-05-15 03:00:00,
2013-05-14 23:05:00,53.8,41.0,-100.00,ESE,113,4.0,7.0,62,0.00,,,0.00,meteohub,2013-05-15 03:05:00,
2013-05-14 23:10:00,53.8,41.0,-100.00,SE,127,7.0,7.0,62,0.00,,,0.00,meteohub,2013-05-15 03:10:00,
2013-05-14 23:15:00,54.0,40.8,-100.00,SE,131,3.0,9.0,61,0.00,,,0.00,meteohub,2013-05-15 03:15:00,
2013-05-14 23:20:00,54.0,40.8,-100.00,SSE,161,5.0,9.0,61,0.00,,,0.00,meteohub,2013-05-15 03:20:00,
2013-05-14 23:25:00,54.0,40.8,-100.00,ESE,120,3.0,9.0,61,0.00,,,0.00,meteohub,2013-05-15 03:25:00,
2013-05-14 23:30:00,54.0,40.8,-100.00,ESE,122,3.0,9.0,61,0.00,,,0.00,meteohub,2013-05-15 03:30:00,
2013-05-14 23:35:00,54.0,40.8,-100.00,SE,129,4.0,7.0,61,0.00,,,0.00,meteohub,2013-05-15 03:35:00,
2013-05-14 23:40:00,53.8,40.6,-100.00,SE,144,3.0,7.0,61,0.00,,,0.00,meteohub,2013-05-15 03:40:00,
2013-05-14 23:45:00,53.8,40.6,-100.00,ESE,115,1.0,7.0,61,0.00,,,0.00,meteohub,2013-05-15 03:45:00,
2013-05-14 23:51:00,53.8,40.6,-100.00,ESE,123,7.0,7.0,61,0.00,,,0.00,meteohub,2013-05-15 03:51:00,
2013-05-14 23:56:00,54.0,40.8,-100.00,SE,129,2.0,8.0,61,0.00,,,0.00,meteohub,2013-05-15 03:56:00,